Date,TemperatureHighF,TemperatureAvgF,TemperatureLowF,DewpointHighF,DewpointAvgF,DewpointLowF,HumidityHigh,HumidityAvg,HumidityLow,PressureMaxIn,PressureMinIn,WindSpeedMaxMPH,WindSpeedAvgMPH,GustSpeedMaxMPH,PrecipitationSumIn
2013-9-1,87.2,76.0,69.5,74.0,67.5,-99.9,93,77,57,29.92,29.69,10,-9,22,1.09
2013-9-2,81.9,72.1,62.2,66.0,61.9,59.0,92,72,49,30.02,29.91,6,1,9,0.00
2013-9-3,86.1,70.9,56.5,64.0,57.4,-99.9,95,67,38,30.07,29.98,4,-10,9,0.00
2013-9-4,85.6,72.8,59.2,71.0,62.1,57.0,95,72,44,30.13,30.02,0,0,0,0.00
2013-9-5,87.8,75.2,61.1,69.0,63.2,59.0,94,69,42,30.16,30.05,7,0,10,0.00
2013-9-6,90.6,78.3,66.7,69.0,65.5,62.0,88,67,45,30.08,29.93,8,1,10,0.00
2013-9-7,98.0,83.4,69.5,72.0,67.9,64.0,82,62,40,29.95,29.81,7,2,11,0.00
2013-9-8,101.3,86.8,72.7,75.0,68.8,66.0,82,57,34,29.84,29.73,6,1,12,0.00
2013-9-9,95.8,84.1,73.7,69.0,65.3,61.0,77,55,33,29.88,29.80,11,2,17,0.00
2013-9-10,94.6,82.4,71.8,69.0,65.5,64.0,77,58,38,30.01,29.88,9,2,13,0.00
2013-9-11,94.8,80.9,66.7,69.0,63.7,60.0,86,59,33,30.07,29.96,6,1,11,0.00
2013-9-12,85.8,76.2,69.0,73.0,65.2,50.0,94,70,50,30.10,30.00,5,1,11,0.03
2013-9-13,75.7,66.8,56.2,56.0,50.9,48.0,85,58,40,30.15,30.02,5,1,9,0.03
2013-9-14,79.8,66.6,52.6,56.0,51.7,47.0,88,61,37,30.08,29.92,7,1,12,0.00
2013-9-15,86.1,71.7,63.6,69.0,61.0,54.0,90,70,56,30.10,29.89,9,2,13,0.04
2013-9-16,64.0,60.9,60.1,61.0,58.6,58.0,95,92,88,30.23,30.11,12,2,12,0.04
2013-9-17,74.2,66.5,61.8,70.0,64.0,60.0,96,91,82,30.16,29.93,7,2,13,0.61
2013-9-18,90.3,77.8,68.1,73.0,69.3,66.0,94,76,54,29.94,29.75,12,2,16,0.61
2013-9-19,92.2,78.9,67.0,72.0,68.6,66.0,95,72,46,29.88,29.66,13,3,19,0.90
2013-9-20,71.0,63.3,55.1,66.0,54.4,50.0,95,74,48,30.03,29.87,10,1,12,0.82
2013-9-21,75.5,61.3,47.9,56.0,50.5,46.0,96,72,38,30.03,29.89,3,0,6,0.01
2013-9-22,76.4,63.8,51.0,56.0,52.0,49.0,94,68,42,29.97,29.83,5,1,12,0.00
2013-9-23,76.8,65.8,55.0,57.0,53.7,51.0,86,67,44,29.90,29.74,11,2,16,0.00
2013-9-24,68.6,64.7,60.2,61.0,57.8,55.0,90,78,67,29.83,29.72,8,2,14,0.00
2013-9-25,78.8,65.7,54.8,66.0,58.5,-99.9,96,81,59,29.88,29.77,5,-10,8,0.01
2013-9-26,85.4,72.8,61.3,63.0,60.6,58.0,90,68,43,29.88,29.78,10,3,16,0.00
2013-9-27,86.6,76.1,68.8,66.0,62.6,61.0,77,64,44,29.91,29.80,7,3,13,0.00
2013-9-28,73.9,65.1,53.6,66.0,59.1,52.0,95,81,66,30.06,29.74,10,2,15,0.42
2013-9-29,73.8,59.3,44.8,61.0,50.9,44.0,97,77,46,30.10,29.94,2,0,7,0.43
2013-9-30,79.5,63.5,48.0,61.0,54.9,47.0,96,76,49,29.94,29.78,7,1,12,0.00